Simultaneous Nadir Overpasses (SNOs) Predictions

Prediction of SNOs between AQUA and NOAA-19 Satellite Orbit:

Table of predicted SNOs for the next 14.0 days since TLE Epoch: 3/30/2024
Index Date (AQUA) Time (AQUA) Lat,Lon (AQUA) SZA (AQUA ) Date (NOAA-19) Time (NOAA-19) Lat,Lon (NOAA-19) SZA (NOAA-19 ) Distance(km) Time Diff (sec)
1 03/30/2024 21:32:56 -75.84, 32.81 108.41 03/30/2024 21:32:49 -75.82, 32.73 108.43 3.17 7
2 04/02/2024 01:23:39 75.80, 155.27 70.72 04/02/2024 01:22:58 75.81, 155.22 70.73 1.48 41
3 04/02/2024 02:13:02 -75.85, -37.20 109.26 04/02/2024 02:13:53 -75.86, -37.35 109.25 4.20 51
4 04/04/2024 05:14:17 -75.63, -81.85 110.30 04/04/2024 05:13:06 -75.56, -83.09 110.34 35.22 71
5 04/04/2024 06:03:44 75.83, 85.21 69.90 04/04/2024 06:04:01 75.86, 85.19 69.93 3.36 17
6 04/06/2024 09:54:24 -75.82,-152.39 110.94 04/06/2024 09:54:05 -75.80,-152.47 110.95 3.06 19
7 04/06/2024 10:43:50 75.97, 14.80 69.22 04/06/2024 10:45:02 75.99, 15.44 69.22 17.39 72
8 04/08/2024 13:45:03 75.79, -29.92 68.22 04/08/2024 13:44:12 75.78, -30.01 68.23 2.42 51
9 04/08/2024 14:34:27 -75.87, 137.48 111.71 04/08/2024 14:35:08 -75.85, 137.50 111.73 2.24 41
10 04/10/2024 17:35:33 -75.40, 93.58 112.99 04/10/2024 17:34:26 -75.30, 90.92 113.03 75.83 67
11 04/10/2024 18:25:05 75.86,-100.11 67.48 04/10/2024 18:25:14 75.84,-100.00 67.47 3.36 9
12 04/12/2024 22:15:41 -75.84, 22.35 113.34 04/12/2024 22:15:18 -75.83, 22.47 113.35 3.55 23



Historial Predications of SNOs between AQUA and NOAA-19
